Change the Weather History Date:

Sunday, February 26, 2012

  Actual Average Record
Temperature  
Mean Temperature 32 °F -  
Max Temperature 39 °F 39 °F 64 °F (2002)
Min Temperature 24 °F 19 °F -3 °F (1964)
Degree Days  
Heating Degree Days 34    
Moisture  
Dew Point 14 °F    
Average Humidity 51    
Maximum Humidity 84    
Minimum Humidity 33    
Precipitation  
Precipitation 0.00 in - - ()
Sea Level Pressure  
Sea Level Pressure 30.36 in    
Wind  
Wind Speed 5 mph (WNW)    
Max Wind Speed 9 mph    
Max Gust Speed 21 mph    
Visibility 10 miles    
Events      
Averages and records for this station are not official NWS values.
T = Trace of Precipitation, MM = Missing Value Source: NWS Daily Summary

Daily Weather History Graph

Daily Weather History Graph

Search for Another Location

Airport or City:

Trip Planner

Search our weather history database for the weather conditions in past years. The results will help you decide how hot, cold, wet, or windy it might be!

Date:

Astronomy

Feb. 26, 2012 Rise Set
Actual Time 6:38 AM EST 5:45 PM EST
Civil Twilight 6:10 AM EST 6:13 PM EST
Nautical Twilight 5:38 AM EST 6:45 PM EST
Astronomical Twilight 5:06 AM EST 7:17 PM EST
Moon 8:28 AM EST (2/26) 10:44 PM EST (2/26)
Length of Visible Light 12h 02m
Length of Day
11h 07m
Waxing Crescent, 20% of the Moon is Illuminated
Feb 26
Waxing Crescent
Feb 29
First Quarter
Mar 8
Full
Mar 14
Last Quarter
Mar 22
New

Hourly Weather History & Observations

Time (EST) Temp. Windchill Dew Point Humidity Pressure Visibility Wind Dir Wind Speed Gust Speed Precip Events Conditions
12:53 AM 30.0 °F 22.4 °F 10.9 °F 45% 30.10 in 10.0 mi WNW 8.1 mph - N/A   Clear
1:53 AM 28.9 °F 22.8 °F 10.9 °F 47% 30.15 in 10.0 mi West 5.8 mph - N/A   Partly Cloudy
2:53 AM 28.0 °F 22.8 °F 10.9 °F 49% 30.17 in 10.0 mi Variable 4.6 mph 17.3 mph N/A   Partly Cloudy
3:53 AM 28.0 °F 20.8 °F 10.9 °F 49% 30.22 in 10.0 mi Variable 6.9 mph 20.7 mph N/A   Clear
5:53 AM 26.1 °F 21.9 °F 12.0 °F 55% 30.31 in 10.0 mi Variable 3.5 mph - N/A   Scattered Clouds
6:53 AM 26.1 °F - 12.0 °F 55% 30.33 in 10.0 mi Calm Calm - N/A   Clear
8:53 AM 30.9 °F 22.8 °F 12.9 °F 47% 30.38 in 10.0 mi NW 9.2 mph 17.3 mph N/A   Clear
9:53 AM 33.1 °F 25.5 °F 12.9 °F 43% 30.40 in 10.0 mi West 9.2 mph - N/A   Clear
10:53 AM 35.1 °F 30.1 °F 12.9 °F 40% 30.41 in 10.0 mi North 5.8 mph - N/A   Clear
11:53 AM 37.0 °F 31.6 °F 12.9 °F 37% 30.41 in 10.0 mi Variable 6.9 mph - N/A   Clear
12:53 PM 37.9 °F 31.5 °F 15.1 °F 39% 30.39 in 10.0 mi WNW 9.2 mph - N/A   Clear
1:53 PM 39.0 °F 33.4 °F 12.9 °F 34% 30.39 in 10.0 mi West 8.1 mph - N/A   Clear
2:53 PM 39.9 °F 36.7 °F 12.9 °F 33% 30.38 in 10.0 mi West 4.6 mph 17.3 mph N/A   Clear
3:53 PM 39.9 °F 36.7 °F 14.0 °F 35% 30.39 in 10.0 mi Variable 4.6 mph - N/A   Clear
4:53 PM 39.9 °F 37.8 °F 14.0 °F 35% 30.40 in 10.0 mi Variable 3.5 mph - N/A   Clear
5:53 PM 37.0 °F 34.5 °F 15.1 °F 41% 30.42 in 10.0 mi North 3.5 mph - N/A   Clear
6:53 PM 32.0 °F - 18.0 °F 56% 30.43 in 10.0 mi Calm Calm - N/A   Clear
7:53 PM 28.9 °F - 19.9 °F 69% 30.43 in 10.0 mi Calm Calm - N/A   Clear
8:53 PM 27.0 °F - 19.0 °F 72% 30.45 in 10.0 mi Calm Calm - N/A   Clear
9:53 PM 25.0 °F - 18.0 °F 75% 30.45 in 10.0 mi Calm Calm - N/A   Clear
10:53 PM 24.1 °F - 19.9 °F 84% 30.44 in 10.0 mi Calm Calm - N/A   Clear
11:53 PM 24.1 °F - 19.9 °F 84% 30.43 in 10.0 mi Calm Calm - N/A   Clear